Weather History for Vancouver International Air-Port, B. C., British Columbia

Change the Weather History Date:

Wednesday, January 2, 2013

  Actual Average Record
Temperature  
Mean Temperature 34 °F -  
Max Temperature 43 °F 42 °F - ()
Min Temperature 26 °F 32 °F - ()
Degree Days  
Heating Degree Days 30    
Moisture  
Dew Point 30 °F    
Average Humidity 89    
Maximum Humidity 100    
Minimum Humidity 74    
Precipitation  
Precipitation 0.00 in 0.19 in - ()
Sea Level Pressure  
Sea Level Pressure 30.31 in    
Wind  
Wind Speed 3 mph ()    
Max Wind Speed 8 mph    
Max Gust Speed -    
Visibility 14.2 miles    
Events      
T = Trace of Precipitation, MM = Missing Value Source: Averaged Metar Reports

Daily Weather History Graph

Daily Weather History Graph

Search for Another Location

Airport:

Trip Planner

Search our weather history database for the weather conditions in past years. The results will help you decide how hot, cold, wet, or windy it might be!

Date:

Astronomy

Jan. 02, 2013 Rise Set
Actual Time 8:07 AM PST 4:26 PM PST
Civil Twilight 7:30 AM PST 5:03 PM PST
Nautical Twilight 6:49 AM PST 5:44 PM PST
Astronomical Twilight 6:11 AM PST 6:23 PM PST
Moon 10:38 PM PST 10:21 AM PST
Length of Visible Light 9h 33m
Length of Day
8h 19m
Waning Gibbous, 74% of the Moon is Illuminated
Jan 2
Waning Gibbous
Jan 4
Last Quarter
Jan 11
New
Jan 18
First Quarter
Jan 26
Full

Hourly Weather History & Observations

Time (PST) Temp. Windchill Dew Point Humidity Pressure Visibility Wind Dir Wind Speed Gust Speed Precip Events Conditions
12:00 AM 28.4 °F 23.3 °F 26.6 °F 93% 30.40 in 2.5 mi East 4.6 mph - N/A   Scattered Clouds
12:09 AM 28.4 °F 24.6 °F - N/A% - 6.0 mi East 3.5 mph - N/A   Scattered Clouds
1:00 AM 28.4 °F - 26.6 °F 93% 30.38 in 15.0 mi Calm Calm - N/A   Mostly Cloudy
2:00 AM 28.4 °F 23.3 °F 26.6 °F 93% 30.38 in 15.0 mi ESE 4.6 mph - N/A   Mostly Cloudy
3:00 AM 28.4 °F - 26.6 °F 93% 30.37 in 15.0 mi ENE 2.3 mph - N/A   Overcast
4:00 AM 29 °F - 28 °F 92% 30.36 in 15 mi Calm Calm - -   Clear
4:00 AM 30.2 °F - 28.4 °F 93% 30.36 in 15.0 mi SE 2.3 mph - N/A   Mostly Cloudy
5:00 AM 26.6 °F - 26.6 °F 100% 30.35 in 15.0 mi ESE 2.3 mph - N/A   Mostly Cloudy
6:00 AM 28.4 °F - 26.6 °F 93% 30.34 in 15.0 mi Calm Calm - N/A   Mostly Cloudy
6:12 AM 26.6 °F - - N/A% - 3.0 mi NNE 2.3 mph - N/A   Mostly Cloudy
6:16 AM 26.6 °F - - N/A% - 15.0 mi NE 2.3 mph - N/A   Mostly Cloudy
7:00 AM 28.4 °F 23.3 °F 26.6 °F 93% 30.33 in 15.0 mi SE 4.6 mph - N/A   Mostly Cloudy
8:00 AM 26.6 °F 18.2 °F 24.8 °F 93% 30.32 in 15.0 mi ESE 8.1 mph - N/A   Mostly Cloudy
9:00 AM 30.2 °F 23.4 °F 28.4 °F 93% 30.33 in 15.0 mi East 6.9 mph - N/A   Overcast
10:00 AM 32 °F - 31 °F 95% 30.33 in 28 mi East 5.8 mph - -   Clear
10:00 AM 32.0 °F 26.4 °F 32.0 °F 100% 30.33 in 30.0 mi ESE 5.8 mph - N/A   Scattered Clouds
11:00 AM 35.6 °F - 33.8 °F 93% 30.34 in 30.0 mi ESE 2.3 mph - N/A   Scattered Clouds
12:00 PM 39.2 °F - 33.8 °F 81% 30.31 in 30.0 mi Calm Calm - N/A   Mostly Cloudy
1:00 PM 41.0 °F 39.0 °F 33.8 °F 76% 30.29 in 30.0 mi NW 3.5 mph - N/A   Mostly Cloudy
2:00 PM 41.0 °F 39.0 °F 33.8 °F 76% 30.28 in 30.0 mi SW 3.5 mph - N/A   Mostly Cloudy
3:00 PM 41.0 °F 39.0 °F 33.8 °F 76% 30.28 in 30.0 mi WNW 3.5 mph - N/A   Mostly Cloudy
4:00 PM 39 °F - 34 °F 74% 30.28 in 28 mi SW 2.3 mph - -   Clear
4:00 PM 39.2 °F - 33.8 °F 81% 30.28 in 30.0 mi WSW 2.3 mph - N/A   Mostly Cloudy
5:00 PM 37.4 °F - 33.8 °F 87% 30.27 in 30.0 mi West 2.3 mph - N/A   Partly Cloudy
6:00 PM 35.6 °F 31.7 °F 32.0 °F 87% 30.26 in 30.0 mi ESE 4.6 mph - N/A   Partly Cloudy
7:00 PM 35.6 °F - 32.0 °F 87% 30.26 in 30.0 mi NNE 2.3 mph - N/A   Scattered Clouds
8:00 PM 33.8 °F 30.8 °F 32.0 °F 93% 30.25 in 30.0 mi ESE 3.5 mph - N/A   Partly Cloudy
9:00 PM 32.0 °F - 30.2 °F 93% 30.24 in 20.0 mi Calm Calm - N/A   Partly Cloudy
10:00 PM 32 °F - 30 °F 89% 30.25 in 19 mi Calm Calm - -   Clear
10:00 PM 32.0 °F - 30.2 °F 93% 30.25 in 20.0 mi Calm Calm - N/A   Partly Cloudy
11:00 PM 30.2 °F 26.7 °F 28.4 °F 93% 30.24 in 20.0 mi South 3.5 mph - N/A   Partly Cloudy